Flag for Germany Weather past 2 weeks in Neuburg an der Donau, Bavaria, Germany

Now
39 °F

Chilly.


Feels Like: 39 °F
Forecast: 46 / 67 °F
Wind: 2 mph from North

Location: Neuburg / Donau


UV Index: 3 (Moderate)

Visibility: 5 mi


Pressure: 29.65 "Hg

Humidity: 93%

Dew point: 37 °F

Location of Neuburg an der DonauLocation

Historic Weather in Neuburg an der Donau

°F

Neuburg an der Donau temperature yesterday

Maximum temperature yesterday: 61 °F (at 3:20 PM)
Minimum temperature yesterday: 46 °F (at 11:20 PM)
Average temperature yesterday: 55 °F

Past Weeks' High & Low Weather Summary

 TemperatureHumidityPressure
High70 °F (Apr 7, 4:20 PM)100% (Apr 7, 5:20 AM)30.36 "Hg (Apr 7, 5:20 AM)
Low28 °F (Apr 16, 6:20 AM)31% (Apr 17, 4:20 PM)29.65 "Hg (Apr 21, 3:20 AM)
Average48 °F71%30.05 "Hg
* Reported Apr 6 4:20 AM — Apr 21 4:20 AM, Neuburg an der Donau, Weather by CustomWeather, © 2014

Note: Actual official high and low records may vary slightly from our data, if they occured in-between our weather recording intervals... More about our weather records

Advertising

Historic Weather Conditions — Data for Previous 24 hours

 ConditionsComfort  
Time TempWeatherWind HumidityBarometerVisibility
4:20 AM
Apr 21
39 °FChilly.2 mph93%29.65 "Hg5 mi
3:20 AM43 °FQuite cool.3 mph81%29.65 "Hg6 mi
2:20 AM43 °FQuite cool.3 mph81%29.68 "Hg6 mi
1:20 AM45 °FQuite cool.2 mph76%29.68 "Hg5 mi
12:20 AM46 °FCool.5 mph76%29.71 "Hg6 mi
11:20 PM
Apr 20
46 °FCool.3 mph71%29.71 "HgN/A
10:20 PM50 °FCool.6 mph67%29.71 "Hg6 mi
9:20 PM54 °FCool.9 mph58%29.71 "Hg6 mi
8:20 PM55 °FRefreshingly cool.9 mph55%29.68 "Hg5 mi
7:20 PM59 °FRefreshingly cool.13 mph45%29.68 "Hg5 mi
6:20 PM61 °FRefreshingly cool.16 mph45%29.68 "Hg5 mi
5:20 PM61 °FRefreshingly cool.15 mph45%29.68 "Hg5 mi
4:20 PM61 °FRefreshingly cool.14 mph48%29.68 "Hg5 mi
3:20 PM61 °FRefreshingly cool.16 mph48%29.71 "Hg4 mi
2:20 PM59 °FRefreshingly cool.15 mph51%29.71 "Hg5 mi
1:20 PM59 °FRefreshingly cool.13 mph55%29.71 "Hg5 mi
12:20 PM59 °FRefreshingly cool.12 mph59%29.74 "Hg5 mi
11:20 AM57 °FRefreshingly cool.12 mph59%29.74 "Hg6 mi
10:20 AM55 °FCool.12 mph63%29.74 "Hg4 mi
9:20 AM54 °FCool.10 mph72%29.74 "Hg5 mi
8:20 AM52 °FCool.8 mph77%29.74 "Hg5 mi
7:20 AM50 °FCool.6 mph82%29.71 "Hg4 mi
6:20 AM50 °FCool.6 mph82%29.71 "Hg4 mi
5:20 AM50 °FCool.6 mph82%29.71 "Hg4 mi
Weather by CustomWeather, © 2014

See weather overview